Powrót do katalogu

DELTA 1 DEB

AktywnyLEO
NORAD 7174·DEBRIS·🇺🇸 United States

Wystrzelony Nov 6, 1973 z Vandenberg Space Force Base

Loading…

Następne Przeloty (najbliższe 24 godziny)

TLE

Starzejące sięSource: Space-Track

Epoka: Sep 12, 2026, 08:58 UTC

1 07174U 73086EL  26255.37371707 -.00000384  00000-0 -33333-2 0  9992
2 07174 102.0872 301.5954 0296584   5.9406   6.4617 12.08900441341962

Śledź DELTA 1 DEB w czasie rzeczywistym z AllMySat

Download on the App Store